Location: Charbonni�res
(45.9952°N, 2.9982°E)
Time: 14:37:31
(UTC+00:00)

Cosmos 1709 Rocket - Pass Details

Date: 29 November 2020
Orbit: 947 x 1003 km, 82.9° (Epoch: 26 January)

Event Time Altitude Azimuth Distance (km) Brightness Sun altitude
Rises 04:57:48 0° 206° (SSW) 3,706 6.9 -21.9°
Reaches altitude 10° 05:00:26 10° 212° (SSW) 2,765 6.1 -21.4°
Maximum altitude 05:06:31 46° 285° (WNW) 1,317 4.2 -20.4°
Drops below altitude 10° 05:12:39 10° 358° (N) 2,784 6.2 -19.3°
Sets 05:15:20 0° 5° (N) 3,734 7.0 -18.9°
